SCP
0 0 0 0 0 0 0 0 0 0 0 0 0 0 0 0 0 0 0 0 0 0 0 0 0 0 0 0 0 0 0 0 0 0 0 0 0 0 0 0 0 0 0
0 0 0 0 0 0 0 0 0 0 0 0 0 0 0 0 0 0 0 0 0 0 0 0 0 0 0 0 0 0 0 0 0 0 0 0 0 0 0 0 0 0 0
0 0 0 0 0 0 0 0 0 0 0 0 0 0 0 0 0 0 0 0 0 0 0 0 0 0 0 0 0 0 0 0 0 0 0 0 0 0 0 0 0 0 0
0 0 0 0 0 0 0 0 0 0 0 0 0 0 0 0 0 0 0 0 0 0 0 0 0 0 0 0 0 0 0 0 0 0 0 0 0 0 0 0 0 0 0
0 0 0 0 0 0 0 0 0 0 0 0 0 0 0 0 0 0 0 0 0 0 0 0 0 0 0 0 0 0 0 0 0 0 0 0 0 0 0 0 0 0 0
0 0 0 0 0 0 0 0 0 0 0 0 0 0 0 0 0 0 0 0 0 0 0 0 0 0 0 0 0 0 0 0 0 0 0 0 0 0 0 0 0 0 0
0 0 0 0 0 0 0 0 0 0 0 0 0 0 0 0 0 0 0 0 0 0 0 0 0 0 0 0 0 0 0 0 0 0 0 0 0 0 0 0 0 0 0
0 0 0 0 0 0 0 0 0 0 0 0 0 0 0 0 0 0 0 0 0 0 0 0 0 0 0 0 0 0 0 0 0 0 0 0 0 0 0 0 0 0 0
0 0 0 0 0 0 0 0 0 0 0 0 0 0 0 0 0 0 0 0 0 0 0 0 0 0 0 0 0 0 0 0 0 0 0 0 0 0 0 0 0 0 0
0 0 0 0 0 0 0 0 0 0 0 0 0 0 0 0 0 0 0 0 0 0 0 0 0 0 0 0 0 0 0 0 0 0 0 0 0 0 0 0 0 0 0
0 0 0 0 0 0 0 0 0 0 0 0 0 0 0 0 0 0 0 0 0 0 0 0 0 0 0 0 0 0 0 0 0 0 0 0 0 0 0 0 0 0 0
0 0 0 0 0 0 0 0 0 0 0 0 0 0 0 0 0 0 0 0 0 0 0 0 0 0 0 0 0 0 0 0 0 0 0 0 0 0 0 0 0 0 0
0 0 0 0 0 0 0 0 0 0 0 0 0 0 0 0 0 0 0 0 0 0 0 0 0 0 0 0 0 0 0 -0 -0 -0 -0 -0 -0 0 0 0 0 0 0
0 0 0 0 0 0 0 0 0 0 0 0 0 0 0 0 0 0 0 0 0 0 0 0 0 0 0 0 0 0 0 0 -0 -0 -0 -0 -0 0 0 0 0 0 0
0 0 0 0 0 0 0 0 0 0 0 0 0 0 0 0 0 0 0 0 0 0 0 0 0 0 0 0 0 0 0 0 0 0 0 -0 -0 -0 0 0 0 0 0
0 0 0 0 0 0 0 0 0 0 0 0 0 0 0 0 0 0 0 0 0 0 0 0 0 0 0 0 0 0 0 0 0 0 0 0 0 0 0 0 0 0 0
0 0 0 0 0 0 0 0 0 0 0 0 0 0 0 0 0 0 0 0 0 0 0 0 0 0 0 0 0 0 0 0 0 0 0 0 0 0 0 0 0 0 0
0 0 0 0 0 0 0 0 0 0 0 0 0 0 0 0 0 0 0 0 0 0 0 0 0 0 0 0 0 0 0 0 0 0 0 0 0 0 -0 -0 -0 -0 -0
0 0 0 0 0 0 0 0 0 0 0 0 0 0 0 0 0 0 0 0 0 0 0 0 0 0 0 0 0 0 0 0 0 0 0 0 0 0 0 0 0 0 0
0 0 0 0 0 0 0 0 0 0 0 0 0 0 0 0 0 0 0 0 0 0 0 0 0 0 0 0 0 0 0 0 0 0 0 0 0 0 0 0 0 0 0
0 0 0 0 0 0 0 0 0 0 0 0 0 0 0 0 0 0 0 0 0 0 0 0 0 0 0 0 0 0 0 0 0 0 0 0 0 0 0 0 0 0 0
0 0 0 0 0 0 0 0 0 0 0 0 0 0 0 0 0 0 0 0 0 0 0 0 0 0 0 0 0 0 0 0 0 0 0 0 0 0 0 0 0 0 0
0 0 0 0 0 0 0 0 0 0 0 0 0 0 0 0 0 0 0 0 0 0 0 0 0 0 0 0 0 0 0 0 0 0 0 0 0 0 0 0 0 0 0
0 0 0 0 0 0 0 0 0 0 0 0 0 0 0 0 0 0 0 0 0 0 0 0 0 0 0 0 0 0 0 0 0 0 0 0 0 0 0 0 0 0 0
0 0 0 0 0 0 0 0 0 0 0 0 0 0 0 0 0 0 0 0 0 0 0 0 0 0 0 0 0 0 0 0 0 0 0 0 0 0 0 0 0 0 0
0 0 0 0 0 0 0 0 0 0 0 0 0 0 0 0 0 0 0 0 0 0 0 0 0 0 0 0 0 0 0 0 0 0 0 0 0 0 0 0 0 0 0
Wind_Speed
7 6 6 5 5 5 5 4 4 4 3 3 3 3 2 2 2 1 2 2 2 2 2 2 2 2 2 2 2 2 3 3 2 1 1 1 2 2 2 1 2 3 4
6 6 6 5 5 5 5 5 5 4 4 4 3 3 2 2 2 2 2 2 2 2 2 2 2 2 2 2 2 3 2 3 3 2 2 1 1 2 1 1 1 1 2
6 6 6 6 5 5 5 5 5 5 5 4 4 3 3 3 2 2 3 2 2 2 2 2 2 2 3 2 3 3 2 2 2 3 2 1 1 1 2 2 2 1 1
5 6 6 6 6 6 6 5 5 5 5 5 4 4 4 4 3 3 3 3 2 2 2 2 2 2 3 3 3 3 3 2 3 3 2 2 1 1 2 2 2 2 1
5 6 6 6 6 6 6 6 6 5 6 5 5 4 4 4 3 4 4 3 3 2 2 2 1 1 3 3 3 2 3 3 3 3 2 2 2 2 2 2 2 2 2
5 5 4 5 5 6 6 7 6 6 6 6 6 5 4 3 1 3 6 4 3 3 2 2 2 2 2 3 1 2 3 3 3 3 2 2 2 1 1 2 2 2 2
4 4 4 5 5 6 6 7 7 7 7 7 7 6 6 4 3 4 6 6 4 3 3 3 2 1 3 3 5 6 3 3 4 4 3 2 2 1 2 2 2 1 0
3 3 3 4 5 5 6 7 7 7 6 7 7 7 6 5 5 6 6 7 5 5 4 4 3 3 2 3 3 3 2 2 3 4 3 2 1 1 2 2 2 2 1
3 4 4 4 5 5 6 7 7 7 7 7 7 7 8 7 7 7 8 6 5 5 4 4 4 3 1 2 4 3 3 3 3 1 2 2 4 3 1 2 3 3 3
4 5 5 5 5 6 6 7 6 7 7 8 8 8 8 8 6 8 10 6 6 5 4 4 3 3 2 3 5 4 4 3 3 5 4 4 4 3 3 3 3 3 2
5 5 5 5 6 6 6 6 6 7 7 8 8 8 8 8 7 9 10 7 6 5 4 4 3 5 4 5 6 4 2 3 3 3 3 3 3 2 3 2 2 2 2
5 5 6 6 6 5 6 6 6 7 8 8 8 8 7 7 7 8 10 10 8 7 5 5 3 6 6 5 5 2 2 4 3 3 3 3 3 2 2 2 2 1 0
6 6 6 6 6 6 6 6 6 6 7 7 7 7 7 6 6 8 10 11 9 7 5 3 3 6 7 6 6 5 6 5 4 4 4 3 2 2 3 3 3 3 2
7 7 6 6 6 6 5 6 6 6 7 7 7 7 7 6 6 6 6 7 9 8 6 5 7 6 6 4 6 6 5 4 4 4 4 3 3 3 3 3 3 4 3
8 7 6 6 6 6 6 6 8 7 7 7 7 7 7 7 6 6 6 7 7 7 6 6 6 7 7 7 6 5 5 5 5 5 4 4 4 4 3 3 3 3 3
8 7 6 5 5 6 6 6 7 9 9 10 10 10 8 7 5 8 9 8 8 8 8 8 8 8 8 7 7 7 6 6 5 5 5 5 5 5 4 4 3 3 3
9 8 6 7 6 7 7 7 7 7 9 11 12 12 11 8 8 9 9 8 9 11 9 9 9 8 8 8 7 7 7 6 6 6 6 5 5 5 5 4 4 4 4
10 8 8 7 7 8 8 8 8 8 8 7 9 12 12 11 10 10 9 8 7 9 9 9 9 8 8 8 8 7 7 6 6 6 6 6 5 5 5 5 5 5 4
9 8 7 8 8 8 8 9 9 10 9 8 7 6 9 9 10 10 11 9 9 9 9 9 8 8 7 7 7 7 7 7 7 7 6 6 6 6 6 5 5 5 5
8 10 10 9 9 9 9 9 9 9 9 8 8 7 5 6 7 8 9 9 9 9 9 8 8 8 7 7 7 7 7 7 8 7 7 6 6 6 6 6 5 5 5
9 9 10 10 9 9 9 9 9 9 9 9 8 7 7 8 8 9 9 9 9 9 8 8 8 8 8 7 7 8 9 8 7 7 7 7 6 6 5 5 6 5 5
9 9 9 9 9 9 9 9 9 10 10 11 9 7 9 9 9 9 9 9 9 8 8 7 7 7 7 8 8 8 9 8 8 8 7 7 6 6 6 5 5 5 5
10 11 10 10 9 10 10 10 10 10 10 10 9 8 8 9 9 9 9 9 8 8 8 8 8 7 7 7 8 8 9 9 8 8 8 7 7 7 6 6 7 7 6
11 12 12 11 10 10 10 10 10 10 10 10 9 9 9 9 9 10 9 8 8 8 8 8 8 10 12 9 7 8 8 8 8 8 10 8 8 7 7 6 7 8 7
11 11 11 11 11 10 10 10 10 10 10 10 9 9 9 9 9 9 8 8 9 8 9 9 8 10 12 13 10 9 9 9 8 7 8 8 8 8 8 8 7 7 7
11 12 11 11 10 10 10 10 10 11 10 9 9 9 9 9 8 8 8 7 8 8 9 8 10 11 12 11 12 11 12 12 11 9 8 8 8 8 8 7 9 7 8
Wind_Direction
212 215 220 223 227 232 242 249 255 263 266 270 282 300 314 316 312 290 286 292 285 276 247 247 247 260 245 229 235 242 245 246 240 216 175 164 191 205 166 179 164 181 159
214 218 223 227 223 231 238 244 248 255 259 264 274 286 294 294 297 302 299 286 280 285 276 260 245 222 241 249 245 239 235 240 237 226 194 174 203 203 186 181 171 169 169
209 217 221 224 225 230 238 241 247 248 249 247 253 265 275 278 279 275 278 276 272 279 285 283 275 250 234 234 240 241 233 226 227 230 214 162 207 195 187 184 163 146 168
213 217 223 228 228 233 235 235 242 245 247 249 253 257 264 269 274 272 268 270 270 278 284 284 283 274 262 250 235 233 223 219 221 224 217 202 204 209 209 193 173 158 152
216 222 227 230 228 234 238 237 238 243 249 249 252 255 261 267 282 290 276 269 271 267 264 272 290 336 355 319 289 251 219 217 217 219 214 212 207 201 205 208 189 174 145
223 231 235 239 232 233 237 240 236 236 242 245 246 250 251 253 265 279 282 270 261 254 254 253 222 193 200 215 275 307 295 244 225 221 224 221 224 202 186 198 197 202 172
228 231 236 241 236 236 236 235 234 233 237 243 243 245 247 237 202 227 251 268 263 259 257 249 241 217 226 213 189 196 210 257 279 269 239 234 225 202 199 207 201 217 174
242 242 242 250 246 243 241 237 236 238 234 239 244 247 247 237 204 222 235 248 251 248 248 250 243 231 223 259 222 199 191 186 215 235 246 261 272 195 206 230 210 186 158
261 260 254 249 248 245 241 239 239 238 236 235 238 241 244 233 204 213 227 241 241 242 242 246 254 238 138 257 235 211 202 184 142 110 22 42 59 48 315 208 205 207 198
280 271 264 255 248 245 244 245 242 241 239 239 238 239 242 246 202 205 224 237 237 234 229 224 215 253 180 219 234 222 221 214 205 182 186 190 192 167 213 236 227 227 217
300 284 271 259 253 251 248 245 242 240 241 242 242 241 243 245 213 203 216 236 237 236 229 224 201 181 204 212 243 242 238 253 221 211 199 187 187 185 185 205 228 248 239
304 290 278 268 261 253 247 246 243 238 239 241 243 243 241 233 229 211 211 227 249 238 234 228 195 168 189 204 216 204 207 231 225 210 206 199 193 186 182 176 169 165 66
299 289 283 276 263 256 249 243 242 236 239 243 242 243 239 232 214 208 212 217 228 236 233 213 184 174 189 196 198 206 212 216 215 213 209 205 202 197 181 169 163 151 140
297 293 288 282 273 260 253 250 246 242 240 242 242 244 243 233 226 213 211 208 207 216 218 192 187 194 211 215 198 202 214 218 219 214 212 202 189 189 192 188 183 180 175
299 296 295 288 283 273 259 256 255 250 250 247 246 245 243 240 227 218 226 222 216 213 207 209 210 205 207 209 209 204 204 203 207 211 207 201 195 194 195 195 200 203 204
302 302 298 291 284 277 272 265 254 258 258 249 253 255 250 250 229 213 222 229 217 198 207 216 216 214 212 209 208 204 203 203 204 206 209 207 203 200 194 189 196 205 205
298 298 295 291 287 280 274 272 273 261 247 246 243 242 246 243 227 217 213 211 204 195 215 221 220 218 213 210 209 208 204 201 201 204 205 206 206 201 198 197 196 201 203
296 293 289 286 284 281 278 275 272 272 269 258 240 233 232 229 223 213 198 194 208 210 224 223 221 218 215 211 208 207 203 199 201 203 203 202 204 203 202 201 200 202 200
294 292 291 289 284 279 278 275 273 270 268 266 259 233 221 223 219 210 196 217 221 218 219 220 218 215 212 210 208 206 203 201 201 200 202 201 202 204 204 204 199 189 205
290 288 286 286 283 279 276 275 274 271 267 264 258 251 222 218 224 214 216 227 228 224 220 217 212 213 210 207 203 201 201 201 200 202 200 200 202 205 204 202 200 195 200
290 289 281 279 279 280 278 276 275 273 269 264 260 251 233 230 231 227 224 224 226 224 221 218 212 208 207 204 201 202 202 201 199 199 198 197 199 201 202 200 197 196 193
286 286 286 283 282 280 279 277 275 271 269 267 264 251 227 234 235 231 227 226 225 223 219 217 212 208 205 202 200 200 202 202 198 194 195 192 191 193 194 193 193 192 189
284 285 285 282 280 278 274 273 273 272 269 265 262 256 242 239 237 234 232 227 221 219 214 213 212 208 204 204 203 202 202 200 196 192 193 190 188 188 189 189 190 192 193
283 283 284 283 280 279 276 274 273 273 272 270 263 255 248 242 239 236 233 228 221 216 212 210 211 210 205 201 202 202 202 196 191 192 194 192 189 186 185 187 191 192 194
283 282 281 280 278 277 276 274 273 272 270 269 266 261 253 245 238 234 229 224 219 215 214 212 209 208 205 202 201 197 180 175 182 186 186 189 189 188 185 186 187 189 192
284 282 280 278 276 275 274 274 273 272 269 266 265 262 257 250 240 233 227 221 216 214 212 210 209 206 203 201 198 186 170 168 171 179 186 185 185 186 183 184 185 188 191